Voltar ao catálogo

YAOGAN-33 02

AtivoMilitarSSO
NORAD 53698·PAYLOAD·🇨🇳 China

Lançado Sep 2, 2022 de Jiuquan Satellite Launch Center

Loading…

Próximas Passagens (próximas 24 horas)

TLE

AtualizadoSource: Space-Track

Época: Sep 14, 2026, 15:23 UTC

1 53698U 22106A   26257.64105663  .00000082  00000-0  27392-4 0  9992
2 53698  98.1846 264.1770 0000937 195.4860 164.6311 14.58751048214763

Acompanhe YAOGAN-33 02 em tempo real com AllMySat

Download on the App Store